Theta_e
337 341 343 342 348 342 341 340 337 338 337 339 339 338 337 337 342 342 338 336 339 336 337 320 326 320 318 328 330 332 329 324 318 317 322 322 326 326 323 316 312 318 327 327 327 325 319 310 309
340 343 342 339 346 343 341 338 337 336 338 339 339 339 340 339 339 336 335 340 339 339 341 331 337 329 320 326 328 327 326 321 316 314 315 319 323 321 316 312 314 324 322 324 320 319 314 311 310
343 343 344 344 345 342 340 338 336 338 339 339 342 341 340 340 338 337 337 340 339 339 342 338 333 323 322 321 324 326 323 319 314 312 319 319 319 317 313 312 313 312 312 311 311 311 310 310 310
344 339 344 346 345 340 339 337 340 339 337 340 340 339 342 340 340 339 339 342 340 341 341 339 327 329 328 317 321 324 321 316 311 310 313 314 312 312 311 311 311 312 310 310 310 310 310 310 310
340 341 341 340 341 337 336 338 339 337 337 343 344 342 341 342 340 338 341 338 340 343 335 337 333 334 323 316 320 322 319 313 310 310 311 311 312 311 316 312 314 310 309 309 310 310 310 310 310
344 341 344 333 336 336 336 337 336 335 335 340 343 342 342 341 340 339 339 338 340 335 336 334 333 335 332 330 321 320 316 312 311 310 313 319 323 322 323 317 318 311 310 309 309 309 309 309 313
344 339 342 333 335 337 336 336 333 333 333 336 343 342 341 341 341 340 338 338 332 330 329 332 334 336 334 333 330 325 319 316 316 316 322 323 325 323 321 323 321 319 318 315 314 313 316 320 320
341 337 337 333 335 336 336 335 338 337 335 336 337 344 341 341 339 338 337 332 325 323 327 330 330 336 333 332 330 327 325 323 319 318 323 324 324 322 322 323 322 321 319 319 317 318 319 319 320
338 333 333 336 336 337 337 336 339 338 337 334 336 342 342 339 339 337 335 328 325 323 322 325 336 338 334 333 331 329 328 326 325 318 323 323 324 324 322 323 322 320 320 319 318 320 319 319 320
336 332 333 335 338 335 337 338 340 340 336 336 335 342 340 338 338 335 330 327 328 323 324 330 335 338 336 333 331 329 328 327 326 325 317 324 324 323 322 322 322 321 319 319 319 320 319 316 318
336 331 332 335 337 338 337 340 340 341 339 337 336 337 336 336 336 335 332 326 325 323 323 321 333 336 335 332 331 328 328 326 326 325 320 321 322 320 321 321 321 320 319 319 319 320 317 318 319
336 337 336 334 336 337 338 339 340 341 340 339 337 336 336 336 336 335 332 328 324 324 324 326 323 332 334 333 330 330 328 326 326 325 325 317 318 321 322 322 321 320 319 319 319 319 319 320 321
335 337 336 337 337 338 340 338 340 341 341 339 337 337 336 337 335 334 332 328 325 327 325 327 324 317 332 333 332 329 328 326 325 327 326 320 317 318 322 323 322 321 319 320 319 320 319 320 321
337 337 337 338 338 338 338 339 338 343 342 340 339 337 337 337 336 334 330 327 329 330 327 326 323 313 315 322 328 325 324 327 327 326 325 323 318 319 323 324 323 317 320 321 320 320 319 320 321
338 338 337 338 339 338 336 337 339 342 343 342 341 339 337 336 335 334 331 329 330 331 330 329 327 315 319 317 321 326 328 327 326 324 327 326 325 322 324 325 324 321 321 321 321 318 319 319 320
337 339 341 338 338 339 339 339 338 340 341 343 342 341 339 336 335 334 333 331 332 332 332 331 328 316 317 317 320 324 326 326 321 327 326 326 326 325 324 325 324 321 322 322 320 317 319 321 320
336 338 341 340 336 341 342 343 339 342 341 343 343 342 341 339 337 335 334 333 334 334 334 332 329 322 315 315 318 320 319 317 326 327 327 327 326 326 325 324 324 324 322 322 321 319 321 322 321
336 336 335 337 336 340 342 344 340 343 341 341 341 342 342 342 341 339 336 336 336 335 335 334 329 324 318 317 320 317 325 326 327 327 327 327 326 326 326 324 324 324 324 322 323 319 321 321 322
334 336 337 338 338 339 340 340 338 340 341 340 340 339 340 340 341 341 338 338 337 336 336 334 329 330 323 319 320 323 326 328 327 327 327 327 326 326 325 325 325 323 323 324 324 320 320 321 321
334 335 335 340 339 340 342 341 338 337 335 337 341 340 338 336 334 335 339 339 338 338 336 335 333 331 329 322 325 322 323 325 326 326 327 327 328 326 325 325 324 323 322 324 323 322 321 320 322
335 335 334 339 337 338 340 344 340 336 336 337 338 339 337 336 335 335 342 340 339 338 337 336 336 331 330 323 325 321 324 328 330 329 328 329 328 326 324 325 324 324 321 323 324 323 322 321 321
330 333 336 339 338 341 338 345 342 338 340 339 339 338 337 338 338 334 340 343 340 338 336 336 336 331 331 326 328 326 325 327 328 327 328 327 324 325 325 322 324 323 321 322 324 324 323 323 322
332 334 336 339 340 338 341 341 341 341 341 341 339 339 338 338 339 338 337 343 339 337 337 337 338 330 332 327 329 329 328 331 330 328 328 326 327 325 326 326 325 321 320 321 323 324 324 324 324
334 336 338 336 339 344 339 341 342 341 342 340 339 338 337 339 339 342 346 345 342 341 340 340 335 333 336 332 328 329 330 330 330 328 329 327 323 325 327 327 326 322 321 324 324 325 325 325 325
331 334 336 336 341 344 337 337 334 338 340 336 333 339 337 338 339 341 343 345 344 343 342 339 338 339 337 332 328 329 321 323 326 329 328 326 326 325 326 326 325 321 323 324 324 325 325 326 325
332 335 334 340 338 338 339 344 337 336 334 333 333 339 338 337 338 339 340 341 343 343 341 338 339 339 337 333 331 331 330 327 331 331 331 326 326 325 325 326 328 323 322 325 327 325 325 326 326
331 334 333 338 337 339 342 342 337 336 337 338 338 339 338 336 338 339 340 342 342 342 341 340 341 339 340 339 336 335 334 330 331 332 332 327 329 329 327 325 323 323 326 327 327 327 327 324 322
336 334 332 336 340 342 343 343 340 338 339 339 338 336 336 335 339 340 340 339 341 343 342 340 340 340 338 329 325 336 337 332 330 331 329 329 330 330 328 326 325 326 329 328 328 326 324 322 323
333 334 338 335 340 342 341 340 336 341 337 334 338 336 335 335 338 337 338 339 340 341 343 339 339 340 340 338 332 333 332 335 333 334 334 332 331 330 328 326 327 330 328 324 323 324 324 322 321
335 337 337 342 340 341 340 340 338 338 334 336 338 338 335 335 335 337 336 337 338 340 340 341 339 340 339 336 336 334 332 326 334 334 333 331 328 328 327 329 329 328 325 325 323 323 317 310 312
Wind_Speed
8 9 16 16 5 1 7 10 10 13 5 11 21 21 13 14 7 5 10 5 7 1 4 4 10 13 6 3 3 4 6 8 8 7 7 7 6 7 8 10 10 10 9 9 9 9 8 7 4
7 9 9 7 2 1 6 2 9 7 17 14 26 27 20 14 19 15 13 8 6 3 5 3 10 12 6 1 2 3 5 8 8 7 6 5 5 7 8 8 8 7 9 9 9 9 9 8 6
8 4 10 3 1 3 4 4 8 12 18 15 24 21 9 16 17 16 12 11 7 3 2 4 12 14 6 3 2 4 7 9 9 6 3 4 5 6 7 7 8 8 10 10 11 11 10 10 9
4 3 8 4 8 7 3 7 10 10 18 20 23 11 20 24 16 16 10 12 6 5 1 6 16 14 10 6 3 6 8 10 8 6 3 4 6 7 8 8 9 10 11 11 11 11 11 10 9
6 0 2 4 8 6 5 3 17 5 11 21 23 10 14 18 19 11 13 8 3 7 4 7 10 13 11 7 6 7 10 11 9 8 7 8 9 9 11 10 15 15 13 12 11 11 10 10 9
4 1 2 3 6 6 4 6 16 20 19 18 25 19 10 15 12 14 13 6 5 4 2 2 5 8 9 9 8 10 10 9 11 11 11 11 13 10 14 14 21 17 16 13 13 12 11 10 11
16 3 5 6 7 9 1 13 19 19 16 7 16 8 15 14 14 17 14 10 8 8 2 1 5 5 8 8 10 11 10 9 10 10 13 11 10 12 13 15 20 20 19 16 16 15 15 12 14
23 10 4 5 7 5 5 14 16 17 9 9 5 5 10 23 15 15 17 12 7 1 4 3 5 3 5 5 12 13 12 15 12 8 9 8 7 11 13 15 17 19 18 17 15 13 13 11 10
21 4 1 4 7 5 11 10 8 10 18 12 15 18 27 17 16 15 13 13 13 2 2 4 1 3 2 4 11 11 11 14 14 13 5 10 8 11 13 12 13 15 14 16 15 16 12 8 6
5 5 3 7 8 3 7 18 12 8 20 14 21 21 18 14 15 19 17 14 7 6 9 5 1 3 1 4 8 7 7 12 13 12 7 10 8 4 5 6 8 11 12 15 14 12 15 10 2
6 4 5 10 5 1 9 10 4 11 5 20 26 21 16 15 14 13 11 7 10 10 10 8 7 7 3 6 6 5 4 7 8 11 10 5 4 4 4 6 9 8 10 10 11 12 15 11 12
9 15 14 7 8 6 11 2 9 19 17 16 21 21 18 16 15 15 15 11 13 8 5 9 12 16 10 8 7 4 2 4 5 9 10 4 6 3 6 8 7 10 7 10 11 14 13 12 10
9 7 17 24 8 8 10 18 9 16 20 19 18 17 15 14 17 13 12 12 14 10 12 11 6 13 18 10 7 7 6 4 9 6 11 12 8 2 6 10 11 14 7 12 11 10 9 10 9
9 19 24 19 15 2 7 12 10 4 12 18 15 14 13 14 16 17 11 18 13 10 12 13 7 4 8 16 10 5 6 3 6 5 9 11 11 8 8 5 12 15 9 8 13 9 7 9 6
26 10 14 16 17 5 12 8 4 6 8 16 14 11 13 16 16 19 19 20 19 16 14 13 7 5 6 7 9 7 6 7 6 8 8 13 15 10 6 6 12 14 8 9 14 11 5 9 3
8 6 3 11 14 17 7 10 17 9 11 16 15 14 13 18 20 20 20 24 23 23 18 14 8 4 5 6 8 8 6 7 6 2 7 10 13 10 8 8 11 12 8 14 18 10 6 9 14
3 3 8 8 13 7 4 3 12 25 38 13 18 17 20 19 17 21 22 25 26 24 20 18 11 7 8 9 8 4 3 5 3 2 4 8 10 8 10 6 10 12 10 14 15 9 6 10 15
6 5 5 5 8 17 14 7 13 10 8 14 12 10 20 20 19 20 25 25 26 25 21 16 14 13 9 10 8 4 4 4 3 3 4 8 12 6 12 6 5 8 12 13 15 17 5 11 12
6 3 6 8 19 19 22 9 5 3 26 18 14 49 5 4 9 19 26 27 26 25 22 18 16 13 10 10 7 5 3 2 3 3 6 10 10 8 12 7 9 8 12 9 13 14 4 5 9
7 6 5 15 12 13 15 14 6 13 10 14 16 16 6 17 13 20 24 23 27 27 23 19 14 13 10 10 7 3 2 3 3 5 6 9 8 9 5 7 10 10 3 10 12 13 14 2 6
2 9 6 6 7 7 3 5 5 4 5 12 19 16 6 12 8 9 9 16 25 25 23 18 8 14 11 11 6 3 5 2 2 4 7 8 4 9 8 8 8 10 7 6 7 10 16 10 2
6 8 9 9 5 1 5 2 2 4 7 12 20 23 17 14 8 9 8 8 21 22 19 11 5 12 9 9 6 2 1 2 4 1 3 8 7 7 9 6 7 12 10 5 7 11 12 12 12
1 8 6 4 5 6 1 3 3 7 7 20 35 22 18 14 10 9 10 11 17 15 10 7 6 11 8 10 7 5 4 1 4 6 7 1 7 8 7 7 9 15 10 6 9 12 13 15 16
2 6 6 6 4 1 8 6 2 7 8 17 15 11 18 16 12 11 6 1 4 6 6 6 5 7 7 14 12 7 6 7 9 6 2 3 5 5 5 5 13 17 10 10 11 13 15 17 19
4 6 4 5 3 5 10 7 3 10 12 18 4 3 7 16 14 13 10 6 6 6 7 5 5 6 7 13 11 9 7 6 3 1 5 5 5 4 6 8 14 10 11 12 13 16 18 19 21
1 8 5 4 4 3 13 3 2 5 9 4 15 7 5 11 13 10 5 3 8 8 6 4 3 7 4 5 8 8 8 4 3 6 10 5 2 6 8 12 13 16 15 15 16 18 21 20 21
9 5 6 4 2 4 1 6 1 10 7 19 22 13 11 14 17 14 12 7 5 5 4 10 10 4 5 6 7 8 8 8 9 10 10 7 5 5 9 11 13 12 14 16 18 21 19 17 14
7 1 6 4 3 3 3 2 3 9 7 0 4 14 12 13 19 15 8 4 2 7 6 9 14 11 9 8 7 13 10 10 9 7 6 4 6 9 9 10 11 14 16 15 17 16 14 14 13
5 4 8 2 1 4 4 3 3 2 4 7 17 7 11 16 15 12 8 4 3 5 9 4 14 11 17 14 10 6 6 14 12 8 7 8 10 11 10 11 14 15 14 18 17 18 13 16 15
7 8 7 4 5 5 4 4 4 8 15 29 18 11 7 7 10 9 7 5 5 6 10 12 11 16 15 14 10 8 5 7 12 10 9 11 11 8 9 13 14 16 18 19 17 18 21 17 16
Wind_Direction
346 66 54 60 350 82 313 91 101 90 58 95 84 93 93 65 84 145 120 150 140 111 39 14 20 11 353 9 20 19 1 354 347 343 331 328 332 340 343 346 352 10 16 21 18 12 10 5 357
46 59 59 78 112 5 292 18 94 138 142 141 111 101 93 94 114 125 127 174 134 124 141 28 11 6 352 23 27 358 355 352 348 340 338 343 345 345 345 354 5 17 11 6 1 356 353 351 352
65 110 134 64 245 227 239 167 143 123 142 124 88 81 80 122 118 128 131 166 189 201 156 2 11 16 356 352 10 7 1 358 352 350 341 351 351 352 357 4 2 358 353 348 345 343 343 342 342
92 112 133 163 223 250 252 61 72 106 95 103 100 90 72 123 122 124 134 184 197 175 116 31 24 8 6 351 11 7 2 0 4 18 29 18 14 9 7 7 0 354 352 350 347 345 344 344 344
55 231 42 299 175 125 69 33 120 118 82 111 111 108 110 122 128 130 136 152 156 145 15 21 358 18 28 39 30 15 7 14 30 38 39 37 32 25 15 14 13 2 0 2 4 4 1 355 353
253 235 100 228 87 77 57 19 79 86 72 80 110 122 126 142 149 129 146 154 139 114 39 339 357 31 32 44 41 15 11 35 49 55 56 59 44 41 29 37 19 18 14 16 14 15 14 24 30
229 204 255 150 118 72 55 75 79 79 68 43 129 126 149 161 148 143 131 129 100 81 21 299 5 33 30 50 38 29 30 49 58 74 65 46 28 21 18 21 18 19 22 27 32 41 44 45 36
246 220 232 132 112 146 130 92 96 109 121 128 3 131 159 145 146 132 142 144 118 115 62 23 334 356 12 55 43 34 35 35 37 64 65 41 31 18 14 7 14 12 15 19 35 42 29 23 17
282 44 82 47 111 166 147 117 107 142 145 108 101 118 138 137 154 157 169 163 172 188 67 7 330 213 139 96 40 40 15 19 20 33 62 63 39 15 357 352 356 5 14 7 17 17 3 2 14
238 133 75 80 97 126 129 144 146 157 133 128 110 128 135 144 159 155 164 169 190 123 146 100 11 258 346 81 49 67 27 9 3 15 42 102 61 7 32 18 14 4 11 6 19 359 342 339 329
342 126 140 85 41 247 116 121 130 97 106 157 143 147 146 159 168 161 179 153 153 160 198 200 127 100 79 73 88 84 37 15 328 352 24 92 56 353 56 2 13 4 352 4 4 353 351 36 34
26 8 34 124 105 306 107 312 131 129 126 117 141 151 150 170 178 185 189 195 177 198 186 186 182 187 159 142 154 215 285 285 325 321 5 346 42 99 50 13 0 341 3 19 21 1 22 28 14
55 312 8 334 321 286 69 38 357 127 130 123 133 148 159 187 178 188 209 190 195 191 168 193 214 199 211 210 213 235 248 232 281 313 336 349 25 65 62 20 347 354 33 21 360 5 8 15 11
209 31 353 325 325 103 97 82 149 6 110 129 139 158 177 184 190 181 174 179 189 191 183 214 240 243 207 211 231 221 223 257 245 301 333 8 27 57 66 28 351 4 35 12 338 336 4 16 3
52 19 352 329 25 266 96 8 253 290 319 143 150 160 187 185 200 201 196 208 212 205 206 220 207 192 178 191 203 215 198 223 258 289 349 356 3 39 42 359 341 358 18 360 332 336 19 22 357
94 68 83 285 262 278 74 307 300 264 308 156 156 180 191 207 208 212 202 208 216 221 219 223 201 176 173 163 170 187 217 255 271 7 338 323 352 3 19 353 349 4 352 338 342 346 35 28 13
232 191 202 270 288 139 116 201 249 306 319 199 177 191 204 204 213 213 205 213 219 222 218 214 201 181 175 169 198 202 225 248 162 127 292 301 334 320 318 359 344 358 351 341 4 15 50 17 15
233 229 223 227 328 60 90 132 113 173 208 75 346 284 212 212 212 212 213 215 220 218 218 211 194 188 180 185 194 164 98 86 56 35 272 275 320 290 308 312 338 345 334 341 351 5 66 29 6
29 269 233 63 106 86 57 1 39 256 57 5 322 6 279 216 266 220 210 213 216 210 212 208 197 197 188 199 179 129 88 130 353 323 262 271 315 275 296 335 312 313 330 344 351 7 21 45 14
334 334 19 108 110 93 114 239 61 9 116 206 253 241 305 89 70 50 203 218 217 217 211 203 201 204 195 189 181 187 226 230 241 257 245 285 303 332 297 289 319 331 327 344 1 343 4 29 25
241 27 43 105 102 89 104 10 15 338 264 263 285 295 120 89 59 11 35 226 216 216 209 200 205 205 199 185 173 184 169 196 251 198 239 258 296 336 314 294 318 326 333 318 332 326 338 341 8
3 11 34 55 71 51 111 79 221 16 317 317 283 304 117 104 86 38 358 233 217 209 201 204 227 201 198 195 169 176 320 27 354 260 313 322 336 350 353 9 326 322 323 287 312 326 325 334 351
321 59 20 103 44 45 71 187 58 66 347 342 306 284 119 111 84 56 27 183 193 200 205 228 244 192 198 194 196 185 170 212 218 254 303 336 309 349 327 342 336 342 335 335 334 324 326 335 331
300 67 64 65 100 263 278 163 166 159 152 235 258 12 110 110 98 100 101 156 200 241 251 288 191 179 199 194 196 212 228 228 244 280 291 325 323 309 287 286 323 329 323 332 329 325 319 321 317
258 69 355 14 24 216 8 58 185 186 193 228 219 325 74 105 112 121 127 170 195 237 278 298 170 208 225 201 201 208 224 230 256 243 291 318 304 343 333 311 324 335 341 338 334 324 321 317 315
314 118 128 278 328 328 34 303 33 168 208 212 201 245 176 126 138 120 107 174 209 225 289 219 223 233 252 234 241 224 228 236 227 273 258 302 289 309 300 300 318 337 340 341 325 309 307 317 317
321 64 169 136 106 74 18 299 28 162 215 242 212 211 195 131 147 138 119 144 208 276 316 188 235 255 237 344 292 272 262 254 247 261 268 286 287 290 295 305 313 330 326 313 313 317 324 324 333
65 342 20 39 352 35 233 221 284 330 335 105 276 115 103 127 138 129 125 129 232 279 287 193 226 254 210 222 274 234 274 258 256 263 291 290 308 300 314 327 332 325 305 312 311 312 329 331 332
356 12 48 83 179 172 174 237 184 20 53 6 281 148 110 102 131 135 142 138 202 262 248 233 215 226 227 253 325 261 292 254 275 292 304 310 302 305 313 319 312 300 305 307 309 315 307 309 300
119 136 114 130 271 225 108 269 156 193 202 196 244 262 115 131 124 155 164 191 220 214 256 239 216 221 233 277 313 184 245 269 238 257 270 278 275 289 309 294 298 297 303 305 300 303 307 305 298